sat.trackr.live / text

‹ back to catalog

QIANFAN-79

NORAD 63165 · 2025-046G

PAYLOAD ACTIVE UNKNOWN

§ Identity

Operator
Country
PRC
Launch date
2025-03-11
Launch site
WSC
Launch vehicle
Mass (kg)
RCS (m²)

External: N2YO · Heavens-Above · Gunter

§ Orbital elements

Epoch: 2026-05-25T04:11:07.255392Z

Period
106.59 min
Inclination
88.9694°
Eccentricity
0.0015160
Mean motion
13.51007194 rev/d
Perigee alt
1,057.3 km
Apogee alt
1,079.8 km
Semi-major
7,446.7 km
B*
1.2305e-4
RAAN
303.1608°
Arg perigee
23.5560°
Mean anomaly
336.6282°
Rev number
6,944

§ Raw data

QIANFAN-791 63165U 25046G   26145.17438953  .00000092  00000+0  12305-3 0  99902 63165  88.9694 303.1608 0015160  23.5560 336.6282 13.51007194 69446

JSON: /api/v1/satellites/63165 · /tle

For live sub-satellite position, see the globe view (requires WebGL).

§ Visibility from observer

Set your observer location to see the next 7 days of passes ≥ 10°. The values pass through the URL so the page stays shareable.

No JS? Fill the form by hand. The geolocation button needs JavaScript.